TimePST,TemperatureF,Dew PointF,Humidity,Sea Level PressureIn,VisibilityMPH,Wind Direction,Wind SpeedMPH,Gust SpeedMPH,PrecipitationIn,Events,Conditions,WindDirDegrees,DateUTC
12:54 AM,54.0,48.9,83,30.04,4.0,Calm,Calm,-,N/A,,Haze,0,2012-11-04 07:54:00
1:54 AM,46.9,43.0,86,30.04,3.0,Calm,Calm,-,N/A,,Scattered Clouds,0,2012-11-04 08:54:00
1:54 AM,48.0,43.0,83,30.04,3.0,Calm,Calm,-,N/A,,Scattered Clouds,0,2012-11-04 09:54:00
2:01 AM,48.2,42.8,82,30.04,0.8,Calm,Calm,-,N/A,,Mist,0,2012-11-04 10:01:00
2:06 AM,48.2,44.6,87,30.04,1.5,Calm,Calm,-,N/A,,Scattered Clouds,0,2012-11-04 10:06:00
2:08 AM,50.0,44.6,82,30.04,4.0,Calm,Calm,-,N/A,,Partly Cloudy,0,2012-11-04 10:08:00
2:17 AM,46.4,42.8,87,30.04,1.5,Calm,Calm,-,N/A,,Scattered Clouds,0,2012-11-04 10:17:00
2:19 AM,44.6,42.8,93,30.04,0.8,Calm,Calm,-,N/A,,Mist,0,2012-11-04 10:19:00
2:33 AM,46.4,41.0,81,30.03,1.2,Calm,Calm,-,N/A,,Partly Cloudy,0,2012-11-04 10:33:00
2:35 AM,46.4,41.0,81,30.03,2.5,Calm,Calm,-,N/A,,Partly Cloudy,0,2012-11-04 10:35:00
2:40 AM,44.6,41.0,87,30.03,1.2,Calm,Calm,-,N/A,,Scattered Clouds,0,2012-11-04 10:40:00
2:54 AM,44.1,41.0,89,30.03,1.0,Calm,Calm,-,N/A,,Mist,0,2012-11-04 10:54:00
3:07 AM,48.2,44.6,87,30.03,3.0,NE,3.5,-,N/A,,Partly Cloudy,40,2012-11-04 11:07:00
3:37 AM,42.8,39.2,87,30.03,1.8,Calm,Calm,-,0.01,,Clear,0,2012-11-04 11:37:00
3:45 AM,44.6,39.2,81,30.02,0.8,Calm,Calm,-,0.01,,Clear,0,2012-11-04 11:45:00
3:54 AM,45.0,39.9,82,30.02,1.0,Calm,Calm,-,0.01,,Clear,0,2012-11-04 11:54:00
4:01 AM,46.4,42.8,87,30.03,2.0,Calm,Calm,-,N/A,,Clear,0,2012-11-04 12:01:00
4:08 AM,44.6,39.2,81,30.03,5.0,Calm,Calm,-,N/A,,Clear,0,2012-11-04 12:08:00
4:54 AM,45.0,39.9,82,30.03,6.0,Calm,Calm,-,N/A,,Clear,0,2012-11-04 12:54:00
5:54 AM,44.1,39.0,82,30.04,7.0,Calm,Calm,-,N/A,,Clear,0,2012-11-04 13:54:00
6:54 AM,48.9,44.1,83,30.05,7.0,Calm,Calm,-,N/A,,Clear,0,2012-11-04 14:54:00
7:54 AM,57.9,48.9,72,30.06,10.0,Calm,Calm,-,N/A,,Clear,0,2012-11-04 15:54:00
8:54 AM,73.9,45.0,35,30.07,10.0,Calm,Calm,-,N/A,,Clear,0,2012-11-04 16:54:00
9:54 AM,84.9,37.9,19,30.06,10.0,Calm,Calm,-,N/A,,Clear,0,2012-11-04 17:54:00
10:54 AM,91.9,23.0,8,30.03,10.0,Calm,Calm,-,N/A,,Clear,0,2012-11-04 18:54:00
11:54 AM,91.0,33.1,13,30.00,10.0,SSW,8.1,-,N/A,,Clear,210,2012-11-04 19:54:00
12:54 PM,90.0,26.1,10,29.99,10.0,WSW,6.9,-,N/A,,Clear,250,2012-11-04 20:54:00
1:54 PM,91.0,24.1,9,29.98,10.0,WSW,5.8,-,N/A,,Clear,250,2012-11-04 21:54:00
2:54 PM,90.0,26.1,10,29.98,10.0,Variable,6.9,-,N/A,,Clear,0,2012-11-04 22:54:00
3:54 PM,88.0,28.9,12,29.97,10.0,WSW,5.8,-,N/A,,Clear,240,2012-11-04 23:54:00
4:54 PM,82.9,28.0,14,29.98,10.0,SSW,4.6,-,N/A,,Clear,200,2012-11-05 00:54:00
5:54 PM,75.0,28.9,18,30.00,10.0,NE,4.6,-,N/A,,Clear,50,2012-11-05 01:54:00
6:54 PM,66.0,33.1,29,30.02,10.0,NNE,3.5,-,N/A,,Clear,30,2012-11-05 02:54:00
7:54 PM,61.0,32.0,34,30.03,10.0,ENE,3.5,-,N/A,,Clear,60,2012-11-05 03:54:00
8:54 PM,59.0,33.1,38,30.04,10.0,North,3.5,-,N/A,,Clear,360,2012-11-05 04:54:00
9:54 PM,55.0,33.1,43,30.05,10.0,Calm,Calm,-,N/A,,Clear,0,2012-11-05 05:54:00
10:54 PM,52.0,33.1,49,30.05,10.0,Calm,Calm,-,N/A,,Clear,0,2012-11-05 06:54:00